• Em Portugal
  • Lista de países
  • Para 7 dias
  • Temperatura da água
  • Mapas de satélite
  • Mapa do tempo
  • Widgets de tempo
  • user-avatar
    Iniciar Sessão

    Previsão horária em Belém

    Hoje, 11 Dezembro, Segunda-feira

    Tempo Temperatura Precipitação Vento Pressão Humidade
    00:00 +27°C° 0 mm 2 m/s 757 mmHg 87%
    01:00 +27°C° 0 mm 2 m/s 756 mmHg 88%
    02:00 +27°C° 0 mm 2 m/s 756 mmHg 90%
    03:00 +27°C° 0 mm 1 m/s 756 mmHg 91%
    04:00 +27°C° 0 mm 1 m/s 756 mmHg 92%
    05:00 +26°C° 0 mm 1 m/s 756 mmHg 92%
    06:00 +26°C° 0 mm 1 m/s 756 mmHg 93%
    07:00 +28°C° 0 mm 1 m/s 756 mmHg 85%
    08:00 +30°C° 0 mm 2 m/s 757 mmHg 76%
    09:00 +31°C° 0 mm 2 m/s 757 mmHg 68%
    10:00 +34°C° 0,1 mm 2 m/s 757 mmHg 62%
    11:00 +35°C° 0,1 mm 2 m/s 757 mmHg 55%
    12:00 +37°C° 0,1 mm 2 m/s 757 mmHg 49%
    13:00 +36°C° 0,4 mm 2 m/s 756 mmHg 50%
    14:00 +36°C° 0,4 mm 2 m/s 755 mmHg 52%
    15:00 +36°C° 0,4 mm 2 m/s 755 mmHg 53%
    16:00 +34°C° 0,3 mm 2 m/s 755 mmHg 58%
    17:00 +32°C° 0,3 mm 2 m/s 755 mmHg 64%
    18:00 +31°C° 0,3 mm 2 m/s 755 mmHg 69%
    19:00 +30°C° 0,2 mm 2 m/s 755 mmHg 74%
    20:00 +29°C° 0,2 mm 2 m/s 756 mmHg 79%
    21:00 +28°C° 0,2 mm 2 m/s 756 mmHg 84%
    22:00 +28°C° 0,1 mm 2 m/s 757 mmHg 85%
    23:00 +27°C° 0,1 mm 2 m/s 757 mmHg 86%

    Amanhã, 12 Dezembro, Terça-feira

    Tempo Temperatura Precipitação Vento Pressão Humidade
    00:00 +27°C° 0,1 mm 2 m/s 757 mmHg 87%
    01:00 +27°C° 0,1 mm 2 m/s 756 mmHg 88%
    02:00 +27°C° 0,1 mm 2 m/s 756 mmHg 89%
    03:00 +27°C° 0,1 mm 1 m/s 755 mmHg 90%
    04:00 +27°C° 0 mm 1 m/s 756 mmHg 91%
    05:00 +26°C° 0 mm 1 m/s 756 mmHg 92%
    06:00 +26°C° 0 mm 1 m/s 756 mmHg 92%
    07:00 +27°C° 0,1 mm 2 m/s 756 mmHg 88%
    08:00 +28°C° 0,1 mm 2 m/s 757 mmHg 83%
    09:00 +29°C° 0,1 mm 2 m/s 758 mmHg 79%
    10:00 +31°C° 0 mm 2 m/s 758 mmHg 71%
    11:00 +34°C° 0 mm 2 m/s 757 mmHg 63%
    12:00 +35°C° 0 mm 2 m/s 757 mmHg 54%
    13:00 +36°C° 0,1 mm 2 m/s 756 mmHg 54%
    14:00 +36°C° 0,1 mm 2 m/s 756 mmHg 53%
    15:00 +36°C° 0,1 mm 2 m/s 755 mmHg 52%
    16:00 +34°C° 0,9 mm 2 m/s 755 mmHg 62%
    17:00 +31°C° 0,9 mm 2 m/s 755 mmHg 71%
    18:00 +29°C° 0,9 mm 2 m/s 755 mmHg 80%
    19:00 +29°C° 0,1 mm 2 m/s 755 mmHg 83%
    20:00 +28°C° 0,1 mm 2 m/s 756 mmHg 85%
    21:00 +27°C° 0,1 mm 2 m/s 757 mmHg 88%
    22:00 +27°C° 0 mm 2 m/s 757 mmHg 89%
    23:00 +27°C° 0 mm 2 m/s 757 mmHg 90%

    Depois de amanhã, 13 Dezembro, Quarta-feira

    Tempo Temperatura Precipitação Vento Pressão Humidade
    00:00 +27°C° 0 mm 2 m/s 757 mmHg 91%
    01:00 +27°C° 0 mm 2 m/s 757 mmHg 91%
    02:00 +27°C° 0 mm 1 m/s 756 mmHg 92%
    03:00 +27°C° 0 mm 1 m/s 756 mmHg 92%
    04:00 +27°C° 0 mm 1 m/s 756 mmHg 92%
    05:00 +27°C° 0 mm 1 m/s 756 mmHg 93%
    06:00 +26°C° 0 mm 1 m/s 756 mmHg 93%
    07:00 +28°C° 0 mm 2 m/s 757 mmHg 86%
    08:00 +29°C° 0 mm 2 m/s 757 mmHg 80%
    09:00 +31°C° 0 mm 2 m/s 758 mmHg 74%
    10:00 +32°C° 0,3 mm 2 m/s 758 mmHg 69%
    11:00 +34°C° 0,3 mm 2 m/s 757 mmHg 65%
    12:00 +35°C° 0,3 mm 2 m/s 757 mmHg 61%
    13:00 +34°C° 1,2 mm 2 m/s 756 mmHg 63%
    14:00 +34°C° 1,2 mm 2 m/s 756 mmHg 66%
    15:00 +34°C° 1,2 mm 3 m/s 755 mmHg 69%
    16:00 +31°C° 1 mm 2 m/s 755 mmHg 75%
    17:00 +30°C° 1 mm 2 m/s 755 mmHg 80%
    18:00 +29°C° 1 mm 2 m/s 755 mmHg 86%
    19:00 +28°C° 0,4 mm 2 m/s 756 mmHg 87%
    20:00 +28°C° 0,4 mm 2 m/s 757 mmHg 88%
    21:00 +27°C° 0,4 mm 2 m/s 758 mmHg 90%
    22:00 +27°C° 0,3 mm 2 m/s 758 mmHg 90%
    23:00 +27°C° 0,3 mm 2 m/s 758 mmHg 90%

    14 Dezembro, Quinta-feira

    Tempo Temperatura Precipitação Vento Pressão Humidade
    00:00 +27°C° 0,3 mm 2 m/s 758 mmHg 91%
    01:00 +27°C° 0,1 mm 1 m/s 757 mmHg 91%
    02:00 +26°C° 0,1 mm 1 m/s 757 mmHg 92%
    03:00 +26°C° 0,1 mm 1 m/s 756 mmHg 92%
    04:00 +26°C° 0,1 mm 1 m/s 757 mmHg 93%
    05:00 +26°C° 0,1 mm 1 m/s 757 mmHg 93%
    06:00 +26°C° 0,1 mm 1 m/s 757 mmHg 94%
    07:00 +27°C° 0,3 mm 1 m/s 758 mmHg 89%
    08:00 +28°C° 0,3 mm 1 m/s 758 mmHg 84%
    09:00 +30°C° 0,3 mm 2 m/s 759 mmHg 78%
    10:00 +31°C° 0,3 mm 1 m/s 758 mmHg 72%
    11:00 +32°C° 0,3 mm 1 m/s 758 mmHg 66%
    12:00 +33°C° 0,3 mm 1 m/s 758 mmHg 60%
    13:00 +33°C° 1,1 mm 1 m/s 757 mmHg 64%
    14:00 +32°C° 1,1 mm 1 m/s 756 mmHg 68%
    15:00 +32°C° 1,1 mm 1 m/s 755 mmHg 72%
    16:00 +31°C° 1,9 mm 1 m/s 756 mmHg 77%
    17:00 +29°C° 1,9 mm 1 m/s 756 mmHg 83%
    18:00 +28°C° 1,9 mm 1 m/s 756 mmHg 88%
    19:00 +28°C° 1 mm 1 m/s 757 mmHg 89%
    20:00 +27°C° 1 mm 1 m/s 757 mmHg 90%
    21:00 +27°C° 1 mm 1 m/s 758 mmHg 90%
    22:00 +27°C° 0,4 mm 1 m/s 758 mmHg 91%
    23:00 +27°C° 0,4 mm 1 m/s 758 mmHg 91%

    15 Dezembro, Sexta-feira

    Tempo Temperatura Precipitação Vento Pressão Humidade
    00:00 +26°C° 0,4 mm 1 m/s 758 mmHg 91%
    01:00 +26°C° 0,1 mm 1 m/s 757 mmHg 92%
    02:00 +26°C° 0,1 mm 1 m/s 757 mmHg 93%
    03:00 +26°C° 0,1 mm 1 m/s 756 mmHg 93%
    04:00 +26°C° 0,1 mm 1 m/s 757 mmHg 94%
    05:00 +26°C° 0,1 mm 1 m/s 757 mmHg 94%
    06:00 +26°C° 0,1 mm 1 m/s 757 mmHg 95%
    07:00 +26°C° 0,2 mm 1 m/s 758 mmHg 93%
    08:00 +27°C° 0,2 mm 1 m/s 758 mmHg 91%
    09:00 +27°C° 0,2 mm 1 m/s 759 mmHg 89%
    10:00 +28°C° 0,3 mm 1 m/s 759 mmHg 82%
    11:00 +30°C° 0,3 mm 1 m/s 758 mmHg 75%
    12:00 +31°C° 0,3 mm 1 m/s 758 mmHg 68%
    13:00 +31°C° 0,3 mm 1 m/s 757 mmHg 68%
    14:00 +30°C° 0,3 mm 1 m/s 757 mmHg 69%
    15:00 +30°C° 0,3 mm 1 m/s 756 mmHg 70%
    16:00 +29°C° 0,4 mm 1 m/s 756 mmHg 75%
    17:00 +28°C° 0,4 mm 1 m/s 756 mmHg 79%
    18:00 +28°C° 0,4 mm 1 m/s 756 mmHg 83%
    19:00 +27°C° 0,2 mm 1 m/s 757 mmHg 85%
    20:00 +27°C° 0,2 mm 1 m/s 757 mmHg 87%
    21:00 +26°C° 0,2 mm 1 m/s 758 mmHg 88%
    22:00 +26°C° 0,1 mm 1 m/s 757 mmHg 89%
    23:00 +26°C° 0,1 mm 1 m/s 757 mmHg 90%

    16 Dezembro, Sábado

    Tempo Temperatura Precipitação Vento Pressão Humidade
    00:00 +26°C° 0,1 mm 1 m/s 757 mmHg 90%
    01:00 +25°C° 0,1 mm 1 m/s 757 mmHg 91%
    02:00 +25°C° 0,1 mm 1 m/s 757 mmHg 91%
    03:00 +25°C° 0,1 mm 1 m/s 756 mmHg 92%
    04:00 +25°C° 0 mm 1 m/s 756 mmHg 92%
    05:00 +25°C° 0 mm 1 m/s 757 mmHg 92%
    06:00 +25°C° 0 mm 1 m/s 757 mmHg 93%
    07:00 +26°C° 0 mm 1 m/s 757 mmHg 86%
    08:00 +28°C° 0 mm 1 m/s 758 mmHg 80%
    09:00 +29°C° 0 mm 1 m/s 758 mmHg 74%
    10:00 +29°C° 0 mm 1 m/s 758 mmHg 72%
    11:00 +30°C° 0 mm 1 m/s 758 mmHg 69%
    12:00 +30°C° 0 mm 1 m/s 757 mmHg 67%
    13:00 +30°C° 0 mm 1 m/s 757 mmHg 67%
    14:00 +30°C° 0 mm 1 m/s 756 mmHg 67%
    15:00 +30°C° 0 mm 1 m/s 755 mmHg 66%
    16:00 +30°C° 0 mm 1 m/s 755 mmHg 69%
    17:00 +29°C° 0 mm 1 m/s 756 mmHg 72%
    18:00 +29°C° 0 mm 1 m/s 756 mmHg 75%
    19:00 +28°C° 0,2 mm 1 m/s 756 mmHg 78%
    20:00 +27°C° 0,2 mm 1 m/s 757 mmHg 81%
    21:00 +27°C° 0,2 mm 2 m/s 757 mmHg 84%
    22:00 +27°C° 0,5 mm 2 m/s 757 mmHg 86%
    23:00 +27°C° 0,5 mm 2 m/s 757 mmHg 87%
    Mostrar mais